TimeAST,TemperatureF,Dew PointF,Humidity,Sea Level PressureIn,VisibilityMPH,Wind Direction,Wind SpeedMPH,Gust SpeedMPH,PrecipitationIn,Events,Conditions,WindDirDegrees,DateUTC
12:00 AM,82.4,78.8,89,29.86,6.2,SE,11.5,-,N/A,,Scattered Clouds,140,2012-10-14 04:00:00
1:00 AM,82.4,78.8,89,29.83,6.2,SSE,13.8,-,N/A,,Scattered Clouds,150,2012-10-14 05:00:00
2:00 AM,83,78,80,29.81,16,SSE,15.0,,,,Scattered Clouds,150,2012-10-14 06:00:00
2:30 AM,82.4,77.0,84,29.80,6.2,SSE,15.0,-,N/A,,Scattered Clouds,150,2012-10-14 06:30:00
3:30 AM,82.4,77.0,84,29.80,6.2,SSE,11.5,-,N/A,,Scattered Clouds,150,2012-10-14 07:30:00
4:00 AM,82.4,77.0,84,29.80,6.2,SSE,11.5,-,N/A,,Scattered Clouds,150,2012-10-14 08:00:00
5:00 AM,83,76,75,29.82,16,South,13.8,,,,Scattered Clouds,170,2012-10-14 09:00:00
5:00 AM,82.4,77.0,84,29.80,6.2,South,13.8,-,N/A,,Scattered Clouds,170,2012-10-14 09:00:00
6:00 AM,82.4,77.0,84,29.83,6.2,South,16.1,-,N/A,,Mostly Cloudy,170,2012-10-14 10:00:00
7:00 AM,82.4,77.0,84,29.86,6.2,SSE,15.0,-,N/A,,Mostly Cloudy,150,2012-10-14 11:00:00
8:00 AM,85,79,79,29.89,11,SSE,15.0,,,,Widespread Dust,150,2012-10-14 12:00:00
8:00 AM,86.0,78.8,79,29.89,6.2,SSE,15.0,-,N/A,,Mostly Cloudy,150,2012-10-14 12:00:00
9:00 AM,86.0,78.8,79,29.89,6.2,SSE,17.3,-,N/A,,Mostly Cloudy,150,2012-10-14 13:00:00
10:00 AM,86.0,78.8,79,29.92,6.2,SSE,13.8,-,N/A,,Mostly Cloudy,160,2012-10-14 14:00:00
11:00 AM,86,80,78,29.91,10,SSE,15.0,,,,Widespread Dust,160,2012-10-14 15:00:00
11:00 AM,86.0,80.6,84,29.89,6.2,SSE,15.0,-,N/A,,Mostly Cloudy,160,2012-10-14 15:00:00
12:00 PM,86.0,80.6,84,29.86,6.2,SSE,15.0,-,N/A,,Mostly Cloudy,160,2012-10-14 16:00:00
1:00 PM,87.8,80.6,79,29.83,6.2,SSE,15.0,-,N/A,,Mostly Cloudy,160,2012-10-14 17:00:00
2:00 PM,86,80,77,29.82,11,SSE,13.8,,,,Widespread Dust,150,2012-10-14 18:00:00
2:00 PM,86.0,80.6,84,29.80,6.2,SSE,13.8,-,N/A,,Mostly Cloudy,150,2012-10-14 18:00:00
3:00 PM,86.0,80.6,84,29.80,6.2,SSE,11.5,-,N/A,,Mostly Cloudy,150,2012-10-14 19:00:00
4:00 PM,86.0,78.8,79,29.80,6.2,SE,11.5,-,N/A,,Mostly Cloudy,140,2012-10-14 20:00:00
5:00 PM,85,79,78,29.83,14,SE,13.8,,,,Widespread Dust,140,2012-10-14 21:00:00
5:00 PM,86.0,78.8,79,29.83,6.2,SE,13.8,-,N/A,,Scattered Clouds,140,2012-10-14 21:00:00
6:00 PM,84.2,78.8,84,29.83,6.2,SSE,13.8,-,N/A,,Scattered Clouds,150,2012-10-14 22:00:00
7:00 PM,84.2,80.6,89,29.83,6.2,SE,11.5,-,N/A,,Scattered Clouds,140,2012-10-14 23:00:00
8:00 PM,83,79,83,29.86,14,South,9.2,,,,Widespread Dust,180,2012-10-15 00:00:00
8:00 PM,82.4,78.8,89,29.86,6.2,South,9.2,-,N/A,,Scattered Clouds,180,2012-10-15 00:00:00
9:00 PM,82.4,77.0,84,29.86,6.2,South,9.2,-,N/A,,Scattered Clouds,170,2012-10-15 01:00:00
10:00 PM,82.4,77.0,84,29.86,6.2,South,11.5,-,N/A,,Scattered Clouds,170,2012-10-15 02:00:00
11:00 PM,82,78,83,29.86,14,SE,9.2,,,,Widespread Dust,140,2012-10-15 03:00:00
11:00 PM,82.4,77.0,84,29.86,6.2,SE,9.2,-,N/A,,Partly Cloudy,140,2012-10-15 03:00:00